Dyersburg, TN

8:35 PM CST on December 08, 2019 (GMT -0600)
Dyersburg Municipal

Weather History for KDYR - October, 2019

Change the Weather History Date:

Tuesday, October 1, 2019

  Actual Average Record
Temperature  
Mean Temperature 80 °F -  
Max Temperature 93 °F 75 °F 87 °F (2014)
Min Temperature 68 °F 52 °F 42 °F (1999)
Cooling Degree Days 16    
Growing Degree Days 30 (Base 50)    
Moisture  
Dew Point 70 °F    
Average Humidity 72    
Maximum Humidity 100    
Minimum Humidity 45    
Precipitation  
Precipitation 0.00 in - - ()
Sea Level Pressure  
Sea Level Pressure 30.07 in    
Wind  
Wind Speed 3 mph ()    
Max Wind Speed 14 mph    
Max Gust Speed 21 mph    
Visibility 9.5 miles    
Events      
Averages and records for this station are not official NWS values.
T = Trace of Precipitation, MM = Missing Value Source: Averaged Metar Reports

Daily Weather History Graph

Daily Weather History Graph

Search for Another Location

Airport or City:

Astronomy

Oct. 01, 2019 Rise Set
Actual Time 6:52 AM CDT 6:41 PM CDT
Civil Twilight 6:26 AM CDT 7:07 PM CDT
Nautical Twilight 5:57 AM CDT 7:36 PM CDT
Astronomical Twilight 5:27 AM CDT 8:06 PM CDT
Moon 10:03 AM CDT (10/1) 9:00 PM CDT (10/1)
Length of Visible Light 12h 40m
Length of Day
11h 49m
Waxing Crescent, 12% of the Moon is Illuminated
Oct 1
Waxing Crescent
Oct 5
First Quarter
Oct 13
Full
Oct 21
Last Quarter
Oct 27
New

Hourly Weather History & Observations

Time (CDT) Temp. Heat Index Dew Point Humidity Pressure Visibility Wind Dir Wind Speed Gust Speed Precip Events Conditions
12:56 AM 72.0 °F - 70.0 °F 93% 30.06 in 10.0 mi Calm Calm - N/A   Clear
1:56 AM 71.1 °F - 70.0 °F 96% 30.06 in 10.0 mi Calm Calm - N/A   Clear
2:56 AM 70.0 °F - 69.1 °F 97% 30.06 in 10.0 mi Calm Calm - N/A   Clear
3:56 AM 72.0 °F - 69.1 °F 91% 30.06 in 10.0 mi Calm Calm - N/A   Clear
4:56 AM 69.1 °F - 68.0 °F 96% 30.07 in 10.0 mi Calm Calm - N/A   Clear
5:56 AM 68.0 °F - 68.0 °F 100% 30.08 in 9.0 mi Calm Calm - N/A   Clear
6:56 AM 68.0 °F - 66.9 °F 96% 30.10 in 9.0 mi Calm Calm - N/A   Clear
7:56 AM 72.0 °F - 70.0 °F 93% 30.12 in 10.0 mi Calm Calm - N/A   Clear
8:56 AM 79.0 °F - 71.1 °F 77% 30.12 in 10.0 mi Calm Calm - N/A   Clear
9:56 AM 82.9 °F 88.0 °F 72.0 °F 69% 30.13 in 10.0 mi Variable 3.5 mph - N/A   Clear
10:56 AM 87.1 °F 92.8 °F 71.1 °F 59% 30.13 in 10.0 mi SSW 8.1 mph - N/A   Clear
11:56 AM 90.0 °F 95.4 °F 70.0 °F 52% 30.12 in 10.0 mi West 10.4 mph - N/A   Clear
12:56 PM 90.0 °F 96.4 °F 71.1 °F 54% 30.10 in 10.0 mi West 10.4 mph 17.3 mph N/A   Clear
1:06 PM 91.4 °F 98.4 °F 71.6 °F 52% 30.09 in 2.5 mi West 11.5 mph - N/A   Haze
1:15 PM 91.4 °F 98.4 °F 71.6 °F 52% 30.08 in 10.0 mi WSW 13.8 mph - N/A   Clear
1:56 PM 91.9 °F 97.4 °F 70.0 °F 48% 30.07 in 10.0 mi SW 10.4 mph 20.7 mph N/A   Clear
2:56 PM 93.0 °F 97.9 °F 69.1 °F 45% 30.05 in 6.0 mi SW 12.7 mph 16.1 mph N/A   Haze
3:56 PM 93.0 °F 97.9 °F 69.1 °F 45% 30.04 in 10.0 mi South 4.6 mph - N/A   Partly Cloudy
4:56 PM 91.9 °F 95.9 °F 68.0 °F 45% 30.02 in 10.0 mi SW 5.8 mph - N/A   Clear
5:56 PM 90.0 °F 94.5 °F 69.1 °F 50% 30.02 in 10.0 mi Calm Calm - N/A   Clear
6:56 PM 82.0 °F 85.5 °F 69.1 °F 65% 30.02 in 10.0 mi Calm Calm - N/A   Clear
7:56 PM 78.1 °F - 69.1 °F 74% 30.02 in 10.0 mi Calm Calm - N/A   Clear
8:56 PM 75.9 °F - 70.0 °F 82% 30.02 in 10.0 mi South 3.5 mph - N/A   Clear
9:56 PM 75.0 °F - 70.0 °F 84% 30.02 in 10.0 mi Calm Calm - N/A   Clear
10:56 PM 75.9 °F - 70.0 °F 82% 30.02 in 10.0 mi South 3.5 mph - N/A   Clear
11:56 PM 73.0 °F - 69.1 °F 87% 30.02 in 10.0 mi Calm Calm - N/A   Clear